Wind_Speed
15 15 15 16 18 17 18 19 18 17 15 15 14 14 13 12 11 10 9 8 9 10 10 9 9 9 9 8 7 7 6 6 6 6 6 7 7 7 8 8 8 8 8 8 8 8 8 9 9
14 14 15 17 18 18 19 19 18 17 16 15 14 14 13 11 11 10 9 9 9 9 9 9 9 9 8 8 7 7 6 6 6 6 6 6 6 6 7 7 7 7 8 8 8 8 8 8 8
13 13 16 19 18 18 19 19 18 17 16 15 14 14 12 12 12 10 10 9 9 9 9 9 8 8 7 7 7 6 6 6 5 5 5 5 5 5 6 6 7 7 7 7 7 7 7 8 8
11 12 15 17 18 19 19 19 18 16 16 16 15 14 13 12 12 11 11 10 9 9 8 8 7 7 6 6 6 6 6 5 5 5 5 5 5 5 5 5 6 6 6 7 7 7 7 7 7
9 10 13 15 16 18 18 17 17 16 16 16 16 14 13 13 12 11 12 11 10 9 8 7 7 6 6 6 6 6 6 5 5 5 4 4 4 5 5 5 5 5 6 6 6 6 6 6 7
7 9 11 14 15 16 17 18 17 16 16 16 16 15 14 12 12 11 11 11 10 9 8 7 7 6 5 5 5 5 5 5 5 5 4 4 5 5 5 5 5 5 5 6 6 6 6 6 6
6 7 11 12 14 14 16 17 16 15 16 15 16 15 14 13 11 11 12 11 10 9 8 7 7 5 4 4 4 5 5 5 5 5 4 4 5 4 4 4 5 5 5 5 6 6 6 6 6
6 7 9 10 13 13 14 15 15 14 15 15 16 16 15 13 12 11 11 10 9 8 7 7 7 6 4 4 4 4 4 4 4 4 4 4 4 4 4 4 4 5 5 5 5 5 6 6 6
7 7 9 9 11 12 12 14 14 14 15 15 16 16 15 14 12 12 11 10 9 8 7 7 7 6 5 3 3 3 3 3 3 3 3 3 3 4 4 4 5 5 5 5 5 6 6 6 6
6 6 7 7 8 9 10 12 13 14 14 15 16 16 15 14 13 12 12 11 10 9 8 8 7 6 5 3 3 3 3 2 2 3 3 3 3 3 3 4 4 4 4 4 5 5 5 6 5
4 3 4 5 6 8 10 10 10 12 13 14 15 15 15 14 13 12 12 11 10 9 8 8 7 7 5 3 2 2 3 2 2 2 2 2 2 2 3 3 3 4 4 4 4 5 5 5 5
4 3 2 4 5 7 9 9 10 11 12 13 14 14 14 14 13 13 12 11 10 9 9 8 7 7 5 4 3 3 3 3 1 1 2 2 2 2 3 3 3 3 3 3 4 4 5 5 5
4 3 2 1 3 5 8 9 10 11 12 12 13 14 14 14 14 13 12 11 11 10 9 9 8 7 6 5 4 3 3 2 2 1 1 1 2 2 2 3 3 3 3 3 3 3 4 4 4
5 4 3 1 2 4 7 9 9 10 10 11 12 13 13 13 14 13 12 12 12 11 10 9 8 7 6 6 5 4 4 3 2 1 1 0 1 1 1 2 2 2 3 3 2 2 2 2 2
5 5 4 2 2 4 6 8 9 9 10 11 12 13 13 13 14 13 13 12 12 11 10 9 8 7 6 5 4 5 5 4 3 2 1 1 2 1 1 1 1 2 2 2 2 1 1 1 1
5 5 4 2 2 4 6 7 9 9 10 11 12 13 13 13 13 13 12 11 12 11 11 9 8 6 5 5 4 4 3 3 3 2 1 1 1 1 1 1 1 1 0 0 1 1 0 0 1
7 4 4 3 3 5 6 8 8 9 9 11 11 12 13 13 12 12 11 10 10 10 11 10 8 7 6 4 4 3 2 2 2 1 1 0 1 1 1 1 1 1 1 1 1 1 2 2 2
9 6 5 4 3 5 7 8 8 9 8 10 11 12 12 12 12 11 11 10 10 10 10 9 9 7 6 5 3 3 3 3 2 1 1 1 1 2 2 2 2 2 2 2 2 3 3 3 3
12 9 6 4 4 5 7 7 8 8 8 9 11 11 11 11 11 11 10 9 9 9 9 9 8 7 6 5 4 3 3 3 2 2 3 3 3 3 3 3 3 3 3 3 3 3 4 5 5
14 11 8 5 4 5 8 9 9 8 8 9 10 11 11 11 12 11 10 9 9 9 9 9 8 8 6 5 5 3 3 3 3 3 4 4 4 4 4 5 5 4 4 4 4 5 6 6 6
15 12 10 8 6 7 9 10 11 9 9 10 11 11 11 10 11 11 11 10 10 9 10 10 9 8 7 6 6 5 4 4 4 5 4 5 6 6 6 7 7 6 7 7 7 7 7 8 8
15 13 12 12 10 10 11 11 11 10 9 10 12 11 10 10 11 11 11 10 10 10 11 11 10 8 7 6 5 5 5 5 5 5 6 7 7 7 8 8 8 8 8 9 9 9 9 9 10
16 15 15 14 13 13 13 13 12 12 12 11 12 12 12 12 12 12 10 10 10 11 11 11 10 9 8 7 6 5 5 6 6 6 7 7 7 7 8 9 9 10 10 10 11 11 11 11 11
18 17 17 17 16 15 14 15 14 13 12 12 13 13 13 14 15 13 11 11 11 11 11 12 11 9 8 7 7 6 7 7 7 7 7 7 8 9 9 10 10 11 12 13 13 14 13 12 12
21 19 19 19 17 14 14 16 14 12 13 13 13 13 13 14 15 13 11 12 11 11 11 11 10 9 8 8 8 7 8 8 8 8 8 8 9 10 10 11 11 12 13 13 14 15 14 13 13
21 21 20 19 17 14 13 13 12 12 12 12 13 13 13 14 14 12 10 11 11 11 11 10 9 8 8 8 8 7 8 8 8 7 7 8 9 10 11 11 12 12 13 14 14 13 13 14 14
22 21 20 20 19 17 14 13 12 13 13 13 13 14 15 14 13 13 12 12 12 11 11 10 10 9 8 8 8 7 7 7 6 6 7 8 8 10 11 12 12 12 13 13 14 13 13 14 14
23 21 22 22 20 18 16 14 12 12 13 14 15 15 14 14 12 13 13 12 11 11 11 10 9 8 8 7 7 7 7 7 6 6 7 8 8 9 10 12 12 12 13 13 13 13 14 14 14
23 23 24 23 21 19 17 14 14 14 14 15 15 16 15 13 12 11 11 12 12 11 11 10 9 7 7 6 6 7 7 7 6 6 7 8 9 10 10 11 12 12 12 12 13 12 12 13 14
23 23 24 24 23 21 21 18 17 16 16 17 16 15 15 12 11 11 11 11 12 11 11 10 9 8 7 6 6 7 8 7 7 7 8 9 9 10 11 11 11 11 11 12 12 12 12 13 14
Wind_Direction
84 76 65 62 53 50 52 54 53 53 55 53 50 48 45 46 50 51 52 53 63 68 70 68 66 66 66 64 59 56 55 54 53 55 56 59 67 75 77 79 79 81 82 82 83 83 82 83 84
85 74 64 58 53 48 49 51 48 48 51 53 51 47 44 44 48 49 50 51 60 64 67 68 66 67 66 62 59 56 55 55 54 54 56 58 66 72 74 78 79 78 78 78 79 81 81 82 83
83 74 62 55 53 47 44 45 46 43 45 48 49 47 44 42 45 48 51 53 57 62 64 65 63 65 65 61 58 53 53 50 48 48 52 56 64 69 71 75 78 76 73 74 78 78 79 80 80
82 72 62 53 50 48 45 42 41 41 42 43 45 46 44 43 45 45 47 51 55 57 57 58 57 59 60 58 55 52 48 44 42 41 47 52 62 67 71 74 75 72 69 73 75 77 76 76 76
80 70 66 56 46 45 45 44 41 37 38 39 42 44 42 43 42 42 44 48 53 53 51 49 48 52 56 56 53 50 47 43 39 40 43 50 57 62 68 70 69 67 66 69 71 71 71 74 78
77 64 61 54 48 43 42 42 41 35 35 37 41 43 43 44 41 39 44 46 48 50 47 44 45 49 53 55 52 48 47 42 38 38 45 53 55 63 66 65 59 57 59 63 66 66 69 75 78
81 59 59 52 43 39 36 35 37 34 33 34 36 41 42 45 43 38 41 41 41 44 45 43 44 43 49 50 48 46 44 37 36 36 45 52 58 64 63 60 55 51 54 59 61 66 70 75 80
82 60 61 47 38 36 38 31 32 33 31 32 33 36 37 43 45 39 39 37 37 37 40 41 40 39 44 54 50 46 40 36 37 40 44 49 57 64 62 57 51 47 49 53 60 65 71 77 82
89 77 58 44 32 33 31 26 27 28 31 32 33 35 36 40 42 39 37 35 37 38 39 36 37 37 46 57 54 49 44 43 42 43 45 52 60 57 53 53 50 49 51 54 61 64 70 75 77
99 86 55 42 24 24 26 25 25 24 26 29 31 33 33 36 40 39 37 35 34 38 39 36 33 34 45 54 56 54 48 49 53 49 50 52 60 50 40 43 48 54 56 58 63 64 66 71 75
126 84 56 52 10 13 24 24 25 26 28 28 28 29 29 31 35 38 37 35 32 33 36 33 33 36 39 46 51 56 56 65 67 47 58 47 45 48 42 35 44 54 61 60 60 65 64 65 72
162 133 62 38 3 360 5 13 21 24 22 21 23 24 23 25 26 29 33 33 33 36 39 38 37 42 43 41 35 49 55 62 55 40 48 44 46 57 54 48 42 50 64 60 56 67 65 65 69
187 160 115 33 355 353 354 0 9 19 17 17 18 17 17 21 21 23 27 30 32 35 39 41 46 52 55 52 54 47 48 54 63 57 58 51 48 38 59 52 48 53 57 64 63 61 59 60 61
195 190 169 208 305 341 348 360 7 16 15 16 15 13 15 17 16 19 25 28 30 31 35 39 48 54 57 62 63 56 53 52 50 54 51 75 77 49 114 84 62 58 56 65 64 68 69 70 58
207 202 196 215 279 337 350 357 6 9 11 10 9 10 12 13 13 15 21 24 27 30 33 34 42 48 51 57 59 57 50 37 27 21 65 104 102 101 109 107 107 70 57 61 61 69 74 73 65
211 214 212 224 284 323 333 341 353 358 2 3 5 5 8 11 10 10 16 21 23 26 28 31 35 42 46 50 55 55 39 28 22 24 67 106 107 111 135 165 170 148 50 32 15 347 331 298 286
209 215 213 227 279 309 315 326 336 347 356 1 2 1 3 8 8 6 10 14 17 19 21 23 26 27 33 40 35 27 11 8 6 0 43 81 164 185 203 196 195 212 245 267 275 263 272 274 275
210 217 217 221 249 294 304 312 325 339 350 355 357 357 358 3 6 4 8 9 10 9 10 14 14 12 14 15 9 356 343 346 344 306 294 276 250 233 232 229 240 260 264 265 267 249 262 273 279
206 211 213 213 234 283 294 301 312 325 338 344 351 352 355 358 360 357 358 2 3 2 2 4 1 358 354 354 353 351 338 326 318 290 279 273 261 249 252 251 252 260 268 278 283 264 264 271 271
210 211 214 217 246 285 291 298 300 309 324 336 342 348 349 352 351 351 350 352 357 356 356 355 353 349 342 339 342 344 334 322 303 292 286 265 257 253 258 264 262 265 269 277 285 277 269 269 267
214 213 214 222 239 261 277 283 288 297 312 322 328 333 336 340 344 347 348 349 351 350 348 347 347 344 336 328 327 323 317 306 285 274 284 277 266 260 262 266 271 268 271 276 280 278 272 267 267
218 215 216 227 240 252 262 270 275 283 297 308 317 322 324 334 339 341 343 344 346 344 343 340 338 338 338 329 317 311 310 308 289 274 281 281 273 266 269 273 276 276 274 273 275 276 274 272 273
219 219 219 226 238 248 256 265 274 283 292 303 315 317 323 327 330 332 333 334 338 339 336 333 329 328 329 326 320 306 296 301 297 283 280 279 274 274 279 278 276 274 272 272 273 275 276 276 276
218 220 224 230 239 243 253 263 273 281 291 302 307 312 319 323 324 325 325 329 331 333 332 332 326 325 325 321 315 306 296 293 293 284 277 278 280 282 285 283 280 276 274 274 274 277 277 274 273
220 222 227 233 239 243 248 257 267 273 282 291 299 304 311 315 319 323 324 325 324 328 329 330 328 324 324 322 320 313 306 298 291 286 276 275 281 284 289 287 281 277 277 277 276 279 273 270 271
225 228 230 232 234 233 238 253 258 266 274 282 292 300 309 315 315 319 322 323 321 327 327 326 326 323 323 319 315 313 308 302 294 287 282 279 281 284 287 290 283 278 278 276 277 278 273 271 272
226 229 230 230 233 232 237 252 264 274 277 283 291 298 306 312 317 321 319 317 321 324 326 322 318 314 313 313 312 313 313 310 304 290 287 292 290 289 289 290 289 285 280 275 275 276 275 274 277
226 226 226 229 232 235 239 250 267 277 277 281 292 297 302 307 311 315 316 316 319 323 325 320 314 313 312 312 318 322 318 310 301 292 292 296 300 301 296 293 290 290 284 277 275 275 274 274 277
224 226 228 230 234 237 239 246 260 273 282 283 290 293 297 305 307 310 314 316 317 319 322 319 310 309 305 303 309 315 311 306 306 298 298 298 302 305 308 300 293 291 287 283 280 278 277 277 278
225 228 230 231 235 238 241 248 260 270 279 286 291 296 295 303 308 312 313 311 312 313 313 312 310 300 294 294 299 304 308 311 309 306 303 302 302 304 309 308 301 295 291 288 289 282 280 282 284
Height
5919 5919 5919 5919 5918 5917 5915 5915 5914 5914 5913 5912 5911 5911 5910 5909 5909 5910 5908 5906 5905 5904 5904 5904 5904 5904 5904 5904 5903 5903 5903 5903 5903 5902 5902 5901 5901 5900 5900 5899 5898 5898 5898 5897 5896 5896 5896 5896 5896
5921 5921 5921 5920 5918 5918 5917 5917 5916 5916 5915 5914 5914 5913 5912 5910 5909 5909 5908 5906 5906 5905 5905 5905 5905 5905 5905 5905 5905 5904 5904 5904 5904 5904 5903 5903 5902 5902 5901 5900 5900 5900 5899 5899 5898 5898 5897 5897 5897
5923 5923 5923 5921 5920 5920 5919 5919 5918 5917 5916 5916 5916 5915 5914 5912 5911 5910 5909 5907 5907 5907 5907 5907 5906 5906 5906 5906 5906 5906 5906 5905 5905 5905 5905 5904 5904 5903 5903 5902 5901 5901 5901 5900 5899 5899 5899 5899 5898
5925 5925 5924 5922 5921 5921 5921 5921 5920 5919 5919 5918 5918 5917 5915 5914 5912 5911 5910 5909 5908 5908 5908 5908 5908 5907 5907 5907 5907 5907 5907 5907 5907 5906 5906 5906 5905 5904 5904 5903 5903 5902 5902 5901 5901 5901 5900 5900 5900
5928 5926 5925 5923 5923 5923 5923 5923 5923 5922 5921 5919 5919 5918 5917 5915 5913 5912 5911 5910 5910 5910 5910 5909 5909 5909 5908 5908 5908 5908 5908 5908 5908 5908 5907 5907 5906 5906 5905 5905 5904 5904 5903 5903 5902 5902 5902 5901 5901
5930 5928 5927 5925 5924 5924 5924 5924 5924 5924 5922 5921 5921 5920 5918 5916 5914 5913 5913 5912 5911 5911 5911 5911 5910 5910 5909 5909 5910 5910 5909 5909 5909 5909 5908 5908 5907 5907 5906 5906 5905 5905 5905 5904 5904 5903 5903 5902 5902
5931 5930 5928 5927 5927 5927 5927 5926 5926 5925 5924 5923 5922 5921 5919 5918 5916 5915 5914 5913 5913 5912 5912 5911 5911 5910 5910 5910 5911 5911 5910 5910 5910 5909 5909 5909 5908 5908 5907 5907 5907 5906 5906 5905 5905 5904 5904 5903 5903
5931 5931 5930 5929 5928 5929 5929 5928 5927 5927 5926 5924 5923 5921 5921 5920 5918 5917 5915 5915 5914 5913 5913 5912 5911 5911 5911 5911 5911 5911 5911 5911 5911 5910 5909 5909 5909 5909 5908 5908 5908 5907 5907 5906 5905 5905 5905 5904 5904
5932 5933 5931 5930 5930 5931 5930 5929 5929 5928 5927 5926 5924 5923 5922 5921 5920 5918 5917 5916 5915 5914 5913 5912 5912 5911 5911 5911 5912 5912 5912 5912 5911 5911 5910 5910 5910 5909 5909 5909 5908 5908 5907 5907 5906 5906 5906 5905 5905
5933 5933 5932 5932 5932 5932 5931 5931 5930 5929 5928 5927 5926 5925 5923 5922 5921 5920 5918 5917 5916 5915 5914 5913 5912 5912 5911 5911 5912 5912 5912 5912 5912 5911 5911 5911 5910 5910 5910 5909 5909 5909 5908 5908 5907 5907 5906 5906 5906
5933 5933 5933 5932 5932 5932 5933 5933 5932 5931 5930 5929 5927 5926 5925 5923 5922 5921 5920 5918 5917 5915 5914 5913 5913 5912 5911 5912 5912 5912 5912 5912 5912 5912 5911 5911 5911 5910 5910 5910 5910 5909 5909 5908 5908 5907 5907 5907 5906
5933 5933 5933 5933 5933 5933 5934 5934 5933 5932 5931 5930 5928 5927 5926 5924 5923 5921 5921 5920 5918 5917 5915 5914 5913 5912 5912 5912 5912 5912 5912 5911 5912 5912 5912 5911 5911 5911 5910 5910 5910 5910 5909 5909 5908 5908 5908 5908 5908
5934 5934 5934 5934 5934 5934 5934 5934 5934 5933 5932 5931 5929 5928 5927 5925 5923 5922 5921 5920 5918 5917 5916 5915 5913 5913 5912 5912 5912 5912 5912 5912 5912 5911 5911 5911 5911 5911 5911 5911 5910 5910 5910 5909 5909 5909 5909 5909 5908
5934 5933 5934 5934 5934 5934 5935 5935 5934 5933 5932 5931 5930 5929 5927 5926 5924 5923 5921 5920 5918 5917 5915 5914 5913 5913 5913 5912 5912 5912 5912 5912 5911 5911 5911 5911 5911 5911 5911 5911 5911 5910 5910 5910 5910 5909 5909 5909 5909
5934 5934 5934 5934 5933 5934 5935 5935 5935 5934 5933 5932 5931 5930 5928 5927 5925 5923 5922 5920 5919 5917 5916 5914 5914 5913 5913 5912 5912 5912 5912 5911 5911 5911 5910 5911 5911 5911 5911 5911 5911 5911 5910 5910 5910 5909 5910 5910 5910
5933 5934 5934 5934 5933 5934 5936 5935 5935 5934 5933 5932 5931 5930 5928 5927 5925 5924 5922 5921 5919 5918 5917 5915 5914 5913 5913 5912 5912 5912 5912 5911 5911 5910 5910 5910 5910 5910 5911 5911 5910 5910 5910 5910 5910 5909 5909 5909 5909
5933 5933 5933 5933 5933 5933 5934 5934 5934 5933 5933 5932 5931 5930 5929 5927 5926 5924 5923 5922 5920 5919 5917 5916 5915 5914 5913 5913 5912 5912 5911 5911 5910 5910 5910 5909 5910 5910 5910 5910 5910 5910 5910 5910 5910 5909 5909 5909 5909
5932 5931 5931 5932 5933 5933 5933 5933 5933 5932 5932 5932 5931 5930 5929 5927 5926 5925 5923 5922 5920 5919 5918 5916 5915 5914 5913 5912 5912 5912 5911 5911 5910 5910 5909 5909 5909 5909 5909 5909 5909 5909 5909 5909 5909 5909 5908 5908 5908
5929 5930 5930 5931 5931 5931 5931 5932 5932 5932 5932 5931 5931 5929 5928 5927 5926 5925 5923 5922 5920 5919 5918 5916 5915 5913 5912 5912 5911 5911 5910 5910 5909 5909 5908 5908 5909 5908 5908 5908 5908 5908 5908 5908 5908 5907 5907 5907 5907
5926 5928 5928 5929 5929 5929 5930 5931 5930 5930 5930 5930 5930 5930 5928 5927 5926 5924 5923 5922 5920 5918 5917 5916 5914 5913 5912 5911 5910 5910 5909 5909 5908 5908 5908 5908 5908 5907 5907 5907 5907 5907 5907 5906 5906 5906 5906 5906 5906
5924 5926 5926 5927 5928 5928 5929 5929 5929 5929 5928 5928 5929 5929 5928 5926 5925 5924 5922 5920 5919 5917 5916 5915 5913 5912 5911 5910 5909 5909 5908 5907 5907 5907 5907 5906 5906 5906 5906 5905 5905 5905 5905 5905 5904 5904 5904 5904 5903
5922 5924 5924 5925 5926 5927 5928 5928 5928 5927 5927 5928 5928 5927 5926 5925 5923 5922 5921 5919 5918 5917 5915 5914 5912 5911 5910 5909 5908 5907 5907 5906 5905 5905 5905 5905 5904 5904 5904 5903 5903 5903 5903 5902 5902 5902 5901 5901 5900
5919 5920 5922 5922 5923 5925 5925 5926 5926 5925 5925 5926 5926 5926 5925 5923 5922 5920 5919 5918 5916 5915 5913 5912 5911 5909 5908 5907 5906 5905 5905 5904 5904 5903 5903 5903 5902 5902 5901 5901 5900 5900 5900 5900 5899 5899 5898 5898 5897
5916 5917 5918 5920 5921 5923 5923 5923 5924 5924 5924 5924 5924 5924 5923 5922 5921 5919 5917 5916 5915 5913 5912 5910 5908 5907 5906 5905 5904 5904 5903 5902 5902 5901 5900 5900 5900 5899 5899 5898 5898 5897 5897 5896 5895 5895 5895 5894 5894
5912 5914 5916 5917 5919 5921 5921 5921 5922 5922 5922 5921 5922 5922 5921 5920 5919 5917 5915 5914 5913 5911 5910 5908 5907 5906 5905 5903 5902 5901 5901 5900 5899 5899 5898 5898 5897 5897 5896 5896 5895 5894 5893 5893 5892 5891 5890 5890 5890
5908 5911 5913 5915 5916 5917 5918 5918 5919 5919 5919 5919 5919 5919 5919 5918 5917 5915 5913 5912 5910 5909 5908 5907 5905 5904 5903 5902 5900 5899 5898 5898 5897 5896 5896 5896 5895 5894 5893 5892 5892 5891 5890 5889 5888 5886 5885 5886 5886
5904 5906 5909 5911 5912 5914 5914 5915 5916 5915 5915 5916 5916 5916 5916 5915 5914 5913 5911 5910 5908 5907 5906 5904 5903 5902 5900 5899 5898 5897 5896 5895 5895 5894 5894 5893 5892 5891 5891 5889 5888 5887 5886 5885 5885 5884 5883 5883 5883
5900 5902 5904 5906 5908 5910 5912 5912 5913 5913 5913 5913 5913 5914 5913 5912 5912 5910 5909 5908 5906 5905 5903 5902 5901 5899 5898 5897 5896 5895 5894 5893 5892 5892 5891 5891 5890 5889 5888 5886 5885 5884 5883 5882 5881 5880 5880 5880 5879
5895 5898 5900 5902 5904 5907 5908 5911 5910 5910 5910 5910 5911 5911 5910 5910 5909 5908 5907 5906 5904 5902 5901 5900 5898 5897 5896 5895 5894 5893 5892 5891 5890 5889 5889 5888 5887 5886 5885 5883 5882 5881 5879 5878 5877 5877 5876 5876 5875
5891 5893 5896 5899 5901 5902 5904 5909 5906 5907 5907 5907 5907 5907 5907 5907 5907 5906 5904 5903 5902 5900 5899 5897 5896 5895 5894 5893 5892 5891 5890 5889 5888 5887 5886 5886 5885 5884 5882 5880 5879 5877 5876 5875 5874 5873 5872 5872 5871